KF0EZB Weather Reports


Display with metric or nautical units.
time (UTC)temp
F
wind
direction
speed
MPH
gust
MPH
rain 1hr
in
rain 24hr
in
rain mn
in
humidity
%
barometer
mb
20260831043237 85 178 2.0 2.0 0.00 0.00 0.00 49 1011.4
20260831042737 85 189 2.0 3.0 0.00 0.00 0.00 49 1011.4
20260831042231 85 230 3.0 3.0 0.00 0.00 0.00 49 1011.2
20260831041727 86 130 1.0 3.0 0.00 0.00 0.00 48 1011.2
20260831041226 86 197 0.0 6.0 0.00 0.00 0.00 48 1010.9
20260831040721 86 147 0.0 3.0 0.00 0.00 0.00 48 1010.9
20260831040220 86 202 3.0 5.0 0.00 0.00 0.00 48 1010.8
20260831035719 86 214 2.0 5.0 0.00 0.00 0.00 48 1010.8
20260831035213 86 197 1.0 3.0 0.00 0.00 0.00 49 1010.6
20260831034712 86 159 1.0 5.0 0.00 0.00 0.00 48 1010.7
20260831034208 86 198 2.0 2.0 0.00 0.00 0.00 48 1010.7
20260831033703 86 221 1.0 2.0 0.00 0.00 0.00 48 1010.6
20260831033203 86 156 1.0 1.0 0.00 0.00 0.00 48 1010.6
20260831032658 87 186 1.0 3.0 0.00 0.00 0.00 47 1010.7
20260831032153 87 177 2.0 3.0 0.00 0.00 0.00 47 1010.9
20260831031648 87 118 1.0 2.0 0.00 0.00 0.00 46 1010.6
20260831031147 88 184 1.0 3.0 0.00 0.00 0.00 45 1010.7
20260831030646 88 147 0.0 6.0 0.00 0.00 0.00 44 1010.7
20260831030146 89 178 1.0 5.0 0.00 0.00 0.00 43 1010.4
20260831025644 89 102 2.0 5.0 0.00 0.00 0.00 43 1010.5
20260831025139 89 246 3.0 6.0 0.00 0.00 0.00 43 1010.7
20260831024635 88 167 2.0 3.0 0.00 0.00 0.00 44 1010.5
20260831024133 88 327 3.0 3.0 0.00 0.00 0.00 44 1010.4
20260831023632 88 164 0.0 0.0 0.00 0.00 0.00 45 1010.4
20260831023126 88 126 0.0 0.0 0.00 0.00 0.00 45 1010.4
20260831022621 88 170 0.0 0.0 0.00 0.00 0.00 45 1010.3
20260831022116 88 148 1.0 2.0 0.00 0.00 0.00 45 1010.3
20260831021615 88 159 0.0 1.0 0.00 0.00 0.00 45 1010.3
20260831021111 88 146 0.0 1.0 0.00 0.00 0.00 45 1010.3
20260831020606 89 162 0.0 0.0 0.00 0.00 0.00 45 1009.9
20260831015557 89 172 1.0 2.0 0.00 0.00 0.00 44 1009.9
20260831015051 89 200 2.0 2.0 0.00 0.00 0.00 44 1009.7
20260831014546 90 187 0.0 3.0 0.00 0.00 0.00 44 1009.6
20260831014041 90 182 0.0 0.0 0.00 0.00 0.00 43 1009.9
20260831013537 91 230 0.0 1.0 0.00 0.00 0.00 42 1009.7
20260831013032 91 178 0.0 3.0 0.00 0.00 0.00 42 1009.7
20260831012527 91 184 0.0 2.0 0.00 0.00 0.00 41 1009.6
20260831012027 92 156 0.0 2.0 0.00 0.00 0.00 41 1009.6
20260831011521 92 194 1.0 2.0 0.00 0.00 0.00 41 1009.5
20260831011017 93 188 2.0 3.0 0.00 0.00 0.00 40 1009.3
20260831010517 94 191 1.0 3.0 0.00 0.00 0.00 39 1009.3
20260831010014 94 225 0.0 3.0 0.00 0.00 0.00 38 1009.5
20260831005508 95 187 0.0 0.0 0.00 0.00 0.00 37 1009.3
20260831005007 96 162 0.0 0.0 0.00 0.00 0.00 36 1009.3
20260831004504 96 126 0.0 0.0 0.00 0.00 0.00 36 1009.4
20260831003959 96 198 3.0 3.0 0.00 0.00 0.00 35 1009.4
20260831003456 97 175 0.0 3.0 0.00 0.00 0.00 35 1009.2
20260831002955 97 187 1.0 6.0 0.00 0.00 0.00 35 1009.2
20260831002454 98 193 3.0 5.0 0.00 0.00 0.00 34 1009.3
20260831001949 99 202 3.0 8.0 0.00 0.00 0.00 33 1009.3
20260831001444 100 217 3.0 3.0 0.00 0.00 0.00 32 1009.1
20260831000942 101 255 1.0 3.0 0.00 0.00 0.00 31 1009.1
20260831000439 101 190 2.0 5.0 0.00 0.00 0.00 31 1009.2
20260830235935 101 181 1.0 9.0 0.00 0.00 0.00 31 1009.1
20260830235431 102 215 5.0 8.0 0.00 0.00 0.00 30 1009.0
20260830234926 102 285 3.0 5.0 0.00 0.00 0.00 30 1008.9
20260830234421 102 191 2.0 6.0 0.00 0.00 0.00 30 1008.8
20260830233917 102 81 2.0 2.0 0.00 0.00 0.00 30 1009.0
20260830233412 103 188 0.0 1.0 0.00 0.00 0.00 29 1008.8
20260830232908 103 226 2.0 7.0 0.00 0.00 0.00 29 1008.8
20260830232403 104 163 0.0 6.0 0.00 0.00 0.00 29 1008.7
20260830231900 104 207 3.0 10.0 0.00 0.00 0.00 28 1008.7
20260830231355 104 111 3.0 9.0 0.00 0.00 0.00 28 1008.9
20260830230854 104 182 2.0 5.0 0.00 0.00 0.00 28 1008.8
20260830230350 104 189 5.0 9.0 0.00 0.00 0.00 28 1008.7
20260830225849 105 196 0.0 3.0 0.00 0.00 0.00 27 1008.8
20260830225344 105 271 0.0 2.0 0.00 0.00 0.00 27 1008.7
20260830224839 105 238 0.0 6.0 0.00 0.00 0.00 27 1008.6
20260830224333 105 276 1.0 9.0 0.00 0.00 0.00 27 1008.8
20260830223830 105 184 0.0 8.0 0.00 0.00 0.00 27 1008.7
20260830223326 105 212 3.0 5.0 0.00 0.00 0.00 27 1008.6
20260830222825 105 174 0.0 9.0 0.00 0.00 0.00 27 1008.8
20260830222320 105 234 2.0 6.0 0.00 0.00 0.00 27 1008.6
20260830221815 106 185 3.0 8.0 0.00 0.00 0.00 27 1008.6
20260830221313 106 40 3.0 11.0 0.00 0.00 0.00 26 1008.7
20260830220807 106 173 1.0 6.0 0.00 0.00 0.00 26 1008.5
20260830220306 107 212 0.0 7.0 0.00 0.00 0.00 25 1008.7
20260830215804 106 170 4.0 6.0 0.00 0.00 0.00 26 1008.8
20260830215259 106 211 2.0 7.0 0.00 0.00 0.00 26 1008.7
20260830214754 106 156 1.0 5.0 0.00 0.00 0.00 26 1008.6
20260830214249 107 193 0.0 13.0 0.00 0.00 0.00 26 1008.7
20260830213748 106 296 1.0 11.0 0.00 0.00 0.00 26 1009.0
20260830213243 107 257 2.0 6.0 0.00 0.00 0.00 26 1009.0
20260830212739 106 185 2.0 6.0 0.00 0.00 0.00 26 1008.9
20260830212235 107 258 5.0 9.0 0.00 0.00 0.00 26 1009.0
20260830211734 107 279 1.0 5.0 0.00 0.00 0.00 27 1009.2
20260830211234 107 193 0.0 7.0 0.00 0.00 0.00 26 1009.2
20260830210730 106 322 3.0 5.0 0.00 0.00 0.00 26 1009.3
20260830210229 106 234 5.0 9.0 0.00 0.00 0.00 27 1009.4
20260830205726 106 113 4.0 7.0 0.00 0.00 0.00 26 1009.3
20260830205221 106 136 1.0 5.0 0.00 0.00 0.00 27 1009.2
20260830204716 106 228 0.0 5.0 0.00 0.00 0.00 26 1009.3
20260830204215 106 196 2.0 7.0 0.00 0.00 0.00 27 1009.5
20260830203712 105 3 2.0 5.0 0.00 0.00 0.00 27 1009.5
20260830203207 105 195 1.0 8.0 0.00 0.00 0.00 27 1009.7
20260830202706 105 192 3.0 5.0 0.00 0.00 0.00 28 1009.8
20260830202202 105 201 1.0 7.0 0.00 0.00 0.00 28 1009.8
20260830201701 105 263 7.0 11.0 0.00 0.00 0.00 28 1009.9
20260830201156 105 297 0.0 7.0 0.00 0.00 0.00 28 1010.3
20260830200652 104 222 0.0 2.0 0.00 0.00 0.00 28 1009.9
20260830200151 104 239 3.0 8.0 0.00 0.00 0.00 27 1010.2
20260830195647 105 194 3.0 8.0 0.00 0.00 0.00 28 1010.3
20260830195144 104 213 3.0 6.0 0.00 0.00 0.00 28 1010.4
20260830194644 104 111 0.0 6.0 0.00 0.00 0.00 28 1010.4
20260830194144 104 235 3.0 9.0 0.00 0.00 0.00 28 1010.4
20260830193638 103 136 5.0 8.0 0.00 0.00 0.00 28 1010.7
20260830193133 104 231 2.0 6.0 0.00 0.00 0.00 28 1010.8
20260830192628 103 261 3.0 5.0 0.00 0.00 0.00 28 1010.8
20260830192123 104 220 0.0 0.0 0.00 0.00 0.00 28 1010.6
20260830191619 104 244 0.0 5.0 0.00 0.00 0.00 28 1010.5
20260830191114 103 5 2.0 3.0 0.00 0.00 0.00 29 1010.5
20260830190610 104 229 2.0 7.0 0.00 0.00 0.00 28 1010.5
20260830190104 103 248 2.0 10.0 0.00 0.00 0.00 28 1010.6
20260830185557 103 179 0.0 5.0 0.00 0.00 0.00 28 1010.6
20260830185053 103 232 1.0 5.0 0.00 0.00 0.00 29 1010.8
20260830184552 102 278 5.0 8.0 0.00 0.00 0.00 29 1010.7
20260830184046 102 279 1.0 7.0 0.00 0.00 0.00 30 1010.8
20260830183541 102 193 1.0 5.0 0.00 0.00 0.00 30 1010.8
20260830183037 101 278 4.0 7.0 0.00 0.00 0.00 30 1010.9
20260830182532 100 290 2.0 5.0 0.00 0.00 0.00 31 1010.9
20260830182029 101 295 7.0 10.0 0.00 0.00 0.00 31 1011.1
20260830181525 102 225 4.0 8.0 0.00 0.00 0.00 30 1011.2
20260830181024 101 213 2.0 7.0 0.00 0.00 0.00 31 1011.2
20260830180523 101 221 3.0 7.0 0.00 0.00 0.00 31 1011.2
20260830180023 101 224 2.0 3.0 0.00 0.00 0.00 31 1011.2
20260830175522 100 240 4.0 8.0 0.00 0.00 0.00 31 1011.5
20260830175018 100 240 2.0 7.0 0.00 0.00 0.00 31 1011.5
20260830174513 99 175 2.0 6.0 0.00 0.00 0.00 32 1011.5
20260830174008 99 207 3.0 9.0 0.00 0.00 0.00 32 1011.5
20260830173503 99 214 5.0 6.0 0.00 0.00 0.00 32 1011.5
20260830172958 98 177 3.0 9.0 0.00 0.00 0.00 32 1011.9
20260830172455 98 202 0.0 3.0 0.00 0.00 0.00 33 1011.7
20260830171950 98 121 3.0 5.0 0.00 0.00 0.00 32 1011.7
20260830171446 98 252 4.0 6.0 0.00 0.00 0.00 33 1011.9
20260830170946 99 117 2.0 5.0 0.00 0.00 0.00 33 1011.6
20260830170440 98 174 2.0 5.0 0.00 0.00 0.00 34 1011.9
20260830165938 96 207 3.0 6.0 0.00 0.00 0.00 35 1012.0
20260830165435 97 222 3.0 8.0 0.00 0.00 0.00 34 1011.7
20260830164931 96 299 1.0 7.0 0.00 0.00 0.00 35 1011.5
20260830164427 96 238 0.0 7.0 0.00 0.00 0.00 36 1011.5
20260830163923 96 149 1.0 7.0 0.00 0.00 0.00 36 1011.6
20260830163419 95 183 1.0 6.0 0.00 0.00 0.00 37 1011.5
20260830162918 95 220 3.0 6.0 0.00 0.00 0.00 37 1011.5
20260830162414 95 188 4.0 6.0 0.00 0.00 0.00 37 1011.5
20260830161914 95 238 2.0 5.0 0.00 0.00 0.00 37 1011.3
20260830161414 94 150 2.0 8.0 0.00 0.00 0.00 38 1011.4
20260830160909 94 150 2.0 8.0 0.00 0.00 0.00 38 1011.4
20260830160405 94 294 3.0 8.0 0.00 0.00 0.00 38 1011.6
20260830155900 93 251 3.0 6.0 0.00 0.00 0.00 39 1011.2
20260830155356 93 253 3.0 7.0 0.00 0.00 0.00 39 1011.3
20260830154851 93 257 3.0 8.0 0.00 0.00 0.00 39 1011.4
20260830154347 92 195 4.0 11.0 0.00 0.00 0.00 40 1011.2
20260830153844 91 159 3.0 7.0 0.00 0.00 0.00 40 1011.4
20260830153339 91 196 2.0 8.0 0.00 0.00 0.00 40 1011.3
20260830152837 91 307 5.0 9.0 0.00 0.00 0.00 41 1011.2
20260830152332 91 143 1.0 3.0 0.00 0.00 0.00 42 1011.1
20260830151827 90 246 3.0 6.0 0.00 0.00 0.00 43 1011.3
20260830151326 89 184 1.0 8.0 0.00 0.00 0.00 44 1011.4
20260830150821 89 309 2.0 13.0 0.00 0.00 0.00 44 1011.5
20260830150321 88 283 3.0 6.0 0.00 0.00 0.00 45 1011.3
20260830145815 87 238 1.0 8.0 0.00 0.00 0.00 46 1011.5
20260830145310 87 113 0.0 5.0 0.00 0.00 0.00 45 1011.4
20260830144806 88 172 2.0 6.0 0.00 0.00 0.00 45 1011.2
20260830144301 87 190 0.0 5.0 0.00 0.00 0.00 46 1011.5
20260830143757 86 179 2.0 7.0 0.00 0.00 0.00 46 1011.4
20260830143256 86 211 3.0 5.0 0.00 0.00 0.00 46 1011.3
20260830142751 86 130 7.0 11.0 0.00 0.00 0.00 46 1011.4
20260830142246 85 199 2.0 5.0 0.00 0.00 0.00 48 1011.3
20260830141741 83 138 0.0 3.0 0.00 0.00 0.00 50 1011.6
20260830141236 83 138 0.0 3.0 0.00 0.00 0.00 50 1011.6
20260830140731 83 204 0.0 10.0 0.00 0.00 0.00 51 1011.5
20260830140226 82 212 3.0 5.0 0.00 0.00 0.00 52 1011.6
20260830135720 81 218 3.0 5.0 0.00 0.00 0.00 53 1011.5
20260830135025 82 186 1.0 3.0 0.00 0.00 0.00 52 1011.6
20260830134521 82 186 1.0 3.0 0.00 0.00 0.00 52 1011.6
20260830134016 82 196 1.0 7.0 0.00 0.00 0.00 52 1011.6
20260830133512 82 264 5.0 9.0 0.00 0.00 0.00 51 1011.5
20260830133006 82 224 3.0 5.0 0.00 0.00 0.00 52 1011.5
20260830132457 81 196 2.0 5.0 0.00 0.00 0.00 52 1011.6
20260830131956 81 252 7.0 11.0 0.00 0.00 0.00 51 1011.4
20260830131455 81 214 2.0 6.0 0.00 0.00 0.00 51 1011.6
20260830130950 81 196 1.0 3.0 0.00 0.00 0.00 52 1011.5
20260830130446 80 239 2.0 3.0 0.00 0.00 0.00 53 1011.6
20260830125944 80 215 1.0 3.0 0.00 0.00 0.00 53 1011.6
20260830125440 79 169 1.0 5.0 0.00 0.00 0.00 54 1011.5
20260830124938 79 161 1.0 3.0 0.00 0.00 0.00 54 1011.5
20260830124433 79 212 0.0 5.0 0.00 0.00 0.00 54 1011.5
20260830123930 78 130 2.0 3.0 0.00 0.00 0.00 54 1011.4
20260830123426 78 252 0.0 3.0 0.00 0.00 0.00 55 1011.3
20260830122924 78 251 0.0 3.0 0.00 0.00 0.00 55 1011.4
20260830122424 78 183 1.0 6.0 0.00 0.00 0.00 55 1011.3
20260830121919 78 288 3.0 5.0 0.00 0.00 0.00 55 1011.3
20260830121414 78 267 0.0 5.0 0.00 0.00 0.00 55 1011.4
20260830120909 78 218 4.0 8.0 0.00 0.00 0.00 55 1011.3
20260830120404 78 192 0.0 3.0 0.00 0.00 0.00 54 1011.2
20260830115900 78 166 3.0 6.0 0.00 0.00 0.00 54 1011.4
20260830115356 78 165 0.0 1.0 0.00 0.00 0.00 54 1011.3
20260830114851 78 195 0.0 1.0 0.00 0.00 0.00 54 1011.2
20260830114348 79 251 1.0 9.0 0.00 0.00 0.00 53 1011.3
20260830113843 79 194 2.0 6.0 0.00 0.00 0.00 53 1011.3
20260830113343 79 86 0.0 7.0 0.00 0.00 0.00 53 1011.2
20260830112838 79 144 0.0 9.0 0.00 0.00 0.00 53 1011.2
20260830112334 79 187 0.0 5.0 0.00 0.00 0.00 53 1011.3
20260830111830 79 164 2.0 7.0 0.00 0.00 0.00 52 1011.2
20260830111326 79 272 0.0 3.0 0.00 0.00 0.00 52 1011.3
20260830110825 79 188 0.0 3.0 0.00 0.00 0.00 52 1011.1
20260830110322 79 211 0.0 3.0 0.00 0.00 0.00 52 1011.5
20260830105821 79 186 0.0 5.0 0.00 0.00 0.00 52 1011.3
20260830105317 79 172 0.0 3.0 0.00 0.00 0.00 52 1011.0
20260830104814 79 2 1.0 2.0 0.00 0.00 0.00 51 1011.2
20260830104310 80 236 0.0 2.0 0.00 0.00 0.00 51 1011.2
20260830103809 80 215 0.0 2.0 0.00 0.00 0.00 51 1011.3
20260830103305 80 275 0.0 0.0 0.00 0.00 0.00 50 1011.4
20260830102803 80 137 0.0 3.0 0.00 0.00 0.00 50 1011.2
20260830102259 80 213 2.0 5.0 0.00 0.00 0.00 50 1011.4
20260830101754 80 201 0.0 2.0 0.00 0.00 0.00 50 1011.2
20260830101250 80 199 2.0 3.0 0.00 0.00 0.00 50 1011.0
20260830100748 80 185 2.0 5.0 0.00 0.00 0.00 50 1011.1
20260830100244 80 223 4.0 7.0 0.00 0.00 0.00 50 1011.3
20260830095742 80 241 0.0 3.0 0.00 0.00 0.00 50 1011.2
20260830095239 80 159 1.0 1.0 0.00 0.00 0.00 50 1011.2
20260830094734 79 205 2.0 5.0 0.00 0.00 0.00 50 1011.4
20260830094231 79 145 0.0 3.0 0.00 0.00 0.00 50 1011.0
20260830093725 79 73 1.0 5.0 0.00 0.00 0.00 50 1011.0
20260830093222 79 166 0.0 5.0 0.00 0.00 0.00 50 1011.2
20260830092721 79 174 0.0 5.0 0.00 0.00 0.00 50 1011.2
20260830092218 79 335 0.0 1.0 0.00 0.00 0.00 50 1011.1
20260830091714 79 223 2.0 6.0 0.00 0.00 0.00 50 1011.4
20260830091213 79 123 0.0 5.0 0.00 0.00 0.00 50 1011.3
20260830090712 79 196 1.0 6.0 0.00 0.00 0.00 50 1011.4
20260830090209 79 171 0.0 3.0 0.00 0.00 0.00 50 1011.3
20260830085707 79 128 0.0 3.0 0.00 0.00 0.00 50 1011.2
20260830085204 80 129 2.0 3.0 0.00 0.00 0.00 50 1011.2
20260830084659 80 177 2.0 3.0 0.00 0.00 0.00 50 1011.2
20260830084154 80 235 1.0 3.0 0.00 0.00 0.00 49 1011.4
20260830083649 80 177 0.0 2.0 0.00 0.00 0.00 49 1011.0
20260830083144 80 114 0.0 3.0 0.00 0.00 0.00 48 1011.5
20260830082638 81 212 4.0 7.0 0.00 0.00 0.00 48 1011.5
20260830082134 81 246 4.0 6.0 0.00 0.00 0.00 47 1011.3
20260830081630 82 204 0.0 3.0 0.00 0.00 0.00 47 1011.2
20260830081129 82 179 0.0 6.0 0.00 0.00 0.00 46 1011.2
20260830080624 82 117 1.0 8.0 0.00 0.00 0.00 46 1011.6
20260830080120 82 180 4.0 9.0 0.00 0.00 0.00 46 1011.6
20260830075619 82 189 0.0 7.0 0.00 0.00 0.00 45 1011.6
20260830075114 83 205 2.0 6.0 0.00 0.00 0.00 45 1011.4
20260830074610 83 228 4.0 7.0 0.00 0.00 0.00 45 1011.3
20260830074105 83 236 2.0 8.0 0.00 0.00 0.00 44 1011.2
20260830073602 83 92 1.0 3.0 0.00 0.00 0.00 44 1011.4
20260830073056 83 263 3.0 6.0 0.00 0.00 0.00 44 1011.4
20260830072551 83 306 3.0 7.0 0.00 0.00 0.00 44 1011.4
20260830072046 83 261 4.0 8.0 0.00 0.00 0.00 44 1011.6
20260830071542 84 194 0.0 5.0 0.00 0.00 0.00 44 1011.5
20260830071039 84 124 3.0 5.0 0.00 0.00 0.00 44 1011.4
20260830070534 84 191 2.0 5.0 0.00 0.00 0.00 44 1011.6
20260830070029 84 177 0.0 7.0 0.00 0.00 0.00 43 1011.9
20260830065528 84 98 1.0 8.0 0.00 0.00 0.00 43 1011.5
20260830065026 84 161 4.0 9.0 0.00 0.00 0.00 43 1011.5
20260830064521 84 187 1.0 7.0 0.00 0.00 0.00 43 1011.6
20260830064016 85 198 1.0 5.0 0.00 0.00 0.00 43 1011.6
20260830063516 85 141 1.0 2.0 0.00 0.00 0.00 43 1011.4
20260830063010 84 175 1.0 5.0 0.00 0.00 0.00 44 1011.6
20260830062509 84 303 2.0 7.0 0.00 0.00 0.00 44 1011.6
20260830062004 84 82 2.0 7.0 0.00 0.00 0.00 44 1011.6
20260830061459 84 127 1.0 3.0 0.00 0.00 0.00 45 1011.6
20260830060955 84 180 1.0 7.0 0.00 0.00 0.00 45 1011.5
20260830060452 84 168 1.0 3.0 0.00 0.00 0.00 45 1011.3
20260830055947 84 144 3.0 7.0 0.00 0.00 0.00 46 1011.2
20260830055443 84 185 5.0 8.0 0.00 0.00 0.00 46 1011.3
20260830054938 84 200 2.0 10.0 0.00 0.00 0.00 46 1011.3
20260830054433 84 7 3.0 6.0 0.00 0.00 0.00 46 1011.3
20260830053929 84 193 3.0 7.0 0.00 0.00 0.00 46 1011.2
20260830053425 84 135 3.0 6.0 0.00 0.00 0.00 46 1011.1
20260830052923 84 147 1.0 6.0 0.00 0.00 0.00 46 1010.9
20260830052419 84 175 0.0 1.0 0.00 0.00 0.00 46 1011.2
20260830051914 84 56 2.0 5.0 0.00 0.00 0.00 46 1011.3
20260830051409 84 155 4.0 8.0 0.00 0.00 0.00 45 1011.5
20260830050908 84 187 2.0 5.0 0.00 0.00 0.00 45 1011.4
20260830050404 84 162 1.0 5.0 0.00 0.00 0.00 45 1011.1
20260830045902 84 183 3.0 6.0 0.00 0.00 0.00 45 1011.5
20260830045358 84 158 1.0 5.0 0.00 0.00 0.00 45 1011.4
20260830044856 84 148 3.0 5.0 0.00 0.00 0.00 45 1011.2
20260830044352 84 199 3.0 6.0 0.00 0.00 0.00 44 1011.4
20260830043847 84 145 2.0 3.0 0.00 0.00 0.00 45 1011.3